Vorticity
12 14 14 15 15 14 14 13 13 14 14 15 16 17 16 14 12 9 7 7 7 8 10 12 12 12 10 10 9 9 9 9 11 13 15 17 18 18 17 17 18 19 21 22 22 22 21 20 19 18 17 16 14 11 9 8 8 8 9 9 9 9 9 9 9 9 8 7 7 6 6 7 7 7 7 7 7 7 7 7 7 7 7 8 8 8
12 13 14 15 15 14 14 13 13 14 15 15 17 18 18 16 14 12 9 8 7 8 10 13 14 14 12 10 9 9 9 10 11 13 15 17 17 17 16 16 17 19 21 22 23 22 21 20 18 17 16 15 13 10 8 8 8 8 9 9 8 8 9 9 9 8 8 7 7 6 6 7 7 7 7 7 7 7 7 7 7 7 8 8 8 8
14 15 15 15 15 15 15 14 13 13 14 15 17 19 19 17 16 13 11 9 8 8 10 14 16 16 14 11 10 9 9 10 11 13 15 16 17 16 15 14 15 17 19 21 22 21 20 19 17 16 15 14 12 10 8 8 8 8 8 8 8 8 8 9 8 8 7 7 7 6 6 7 7 7 7 7 7 7 7 7 7 7 8 8 8 8
14 15 16 15 15 14 14 14 15 15 14 15 17 19 20 19 17 15 12 10 9 9 10 15 18 19 16 12 10 9 9 9 10 12 14 16 16 16 14 13 13 14 16 18 19 19 19 18 17 16 15 13 11 10 8 8 8 8 8 8 8 8 9 9 8 8 7 7 6 6 7 7 7 7 7 7 7 7 7 7 7 7 8 8 8 8
15 16 16 16 16 15 13 13 14 15 15 16 17 19 21 20 19 17 14 11 9 9 11 17 20 20 16 12 9 8 9 9 10 11 13 15 16 15 14 13 12 12 12 14 15 17 18 18 17 16 15 13 11 10 9 9 8 8 8 8 8 9 9 9 8 8 7 7 6 6 7 7 7 7 7 7 7 7 7 7 7 8 8 8 8 8
16 16 16 16 15 15 14 14 14 15 16 16 17 19 21 21 20 18 16 12 10 9 11 17 20 20 16 11 9 8 8 9 9 10 12 13 14 14 14 13 12 11 11 11 12 13 15 16 16 16 15 14 12 11 10 9 9 8 8 8 8 9 9 9 8 8 7 7 6 6 7 7 7 7 7 7 7 7 7 7 8 8 8 8 8 8
17 16 15 15 15 14 14 14 14 14 15 17 18 20 21 22 21 20 17 14 11 10 11 16 19 18 14 10 8 8 8 9 10 10 11 11 10 10 11 11 12 11 11 11 11 11 12 13 14 15 15 14 14 12 11 10 9 8 8 8 9 9 9 9 9 8 7 7 7 7 7 7 7 7 7 7 7 7 7 8 8 8 8 8 8 8
17 16 14 14 15 14 13 13 13 13 14 16 19 21 22 22 21 20 18 15 12 10 11 14 16 15 11 9 8 9 10 11 12 12 11 9 7 6 7 8 9 10 11 11 11 11 11 11 12 13 15 16 15 14 12 10 9 8 8 8 9 9 10 9 9 8 7 7 7 7 7 7 7 7 7 7 7 7 8 8 8 8 8 8 8 8
16 15 14 13 14 14 14 13 12 11 12 15 17 20 22 23 22 21 19 16 13 11 10 11 11 11 9 8 8 9 11 13 14 14 12 9 6 4 4 5 7 9 11 12 12 12 11 11 11 13 15 16 16 15 13 11 10 8 8 8 9 9 10 9 9 8 7 7 7 7 7 7 7 7 7 7 7 8 8 8 8 9 9 9 8 8
12 12 13 12 12 12 14 14 13 12 12 14 16 18 21 23 24 23 21 18 14 11 9 7 7 8 8 8 8 8 10 12 14 15 13 9 6 4 3 5 6 9 11 13 14 14 13 12 13 13 15 16 16 15 13 11 10 9 8 8 9 9 9 9 9 8 7 7 7 7 7 7 7 7 7 7 8 8 8 9 9 9 9 9 9 8
10 10 11 12 11 11 10 12 13 13 13 14 16 18 20 22 24 25 24 21 17 12 7 5 4 6 9 9 8 8 8 10 12 13 13 10 7 5 4 5 7 9 11 12 14 14 15 15 15 15 16 16 16 15 13 11 10 9 8 8 9 9 9 9 8 8 8 7 7 7 8 8 8 8 8 8 8 8 9 9 9 9 9 9 9 8
10 10 10 12 12 12 11 12 13 14 14 16 17 19 20 21 22 24 25 23 19 14 9 6 4 5 8 10 10 9 7 8 10 12 12 10 8 6 5 6 8 9 11 12 12 13 15 16 16 16 17 16 16 14 13 11 9 9 8 9 9 9 9 8 8 8 8 7 7 8 8 8 8 8 8 8 8 8 9 9 9 9 9 9 9 8
10 11 12 13 14 14 14 15 15 15 15 16 17 19 21 22 23 22 22 20 17 14 11 9 7 7 9 11 12 11 8 8 9 11 12 11 9 8 7 8 9 10 11 11 11 12 14 16 16 17 17 17 16 14 12 11 9 9 8 9 9 9 8 8 8 8 7 7 8 8 8 8 8 8 8 8 8 9 9 9 9 9 9 9 9 8
13 13 14 15 16 16 17 17 18 18 18 18 19 20 21 23 22 22 20 18 15 12 10 9 9 10 12 14 14 12 10 9 9 10 10 11 11 11 10 11 12 13 13 12 12 13 15 16 16 16 17 16 15 14 12 11 10 9 9 9 9 8 8 8 8 8 7 7 8 8 8 8 8 8 8 8 9 9 9 9 9 9 9 9 9 8
15 15 16 16 17 17 18 19 20 22 23 22 22 23 23 23 22 21 20 17 15 12 9 8 8 10 13 15 16 15 11 9 9 9 11 14 15 15 15 15 16 16 15 14 14 14 16 16 16 16 15 15 14 13 12 11 10 9 9 9 9 9 9 8 8 8 7 7 8 8 8 8 9 9 9 9 9 9 9 9 9 9 9 9 9 8
14 14 14 14 15 15 16 17 20 22 24 25 25 25 25 25 23 21 19 16 14 13 9 8 8 9 11 16 17 16 13 11 10 11 14 18 19 19 19 19 18 17 16 15 15 15 16 16 16 15 14 13 13 12 11 11 10 9 9 9 9 9 9 8 8 8 7 7 8 8 8 9 9 9 9 9 9 9 9 9 9 9 9 9 9 9
10 10 10 11 12 13 13 14 16 18 21 23 25 26 26 25 23 20 16 15 14 12 9 7 8 11 16 18 19 18 16 15 15 17 19 21 22 21 20 19 17 16 15 15 15 15 15 15 14 13 12 12 12 12 11 10 10 9 9 9 9 9 9 8 8 7 7 8 8 8 9 9 9 9 9 9 9 9 9 9 9 9 9 9 9 9
7 6 7 9 10 11 11 11 12 14 17 20 23 25 26 24 21 18 15 15 14 13 11 9 9 12 17 21 23 23 21 20 20 21 23 23 22 20 19 18 16 15 14 15 15 15 15 14 13 12 12 12 12 12 11 10 10 9 9 9 9 9 9 8 8 7 7 8 8 8 9 9 9 9 8 8 9 9 9 9 9 9 9 9 9 9
5 5 6 7 8 9 9 9 10 12 14 16 20 22 23 20 17 14 13 13 13 14 16 15 16 18 22 25 26 25 23 22 22 23 23 22 20 18 17 16 15 14 15 15 15 15 15 14 14 13 13 13 13 12 12 11 10 10 10 10 10 9 8 8 8 8 8 8 8 8 8 8 8 8 8 8 8 8 8 9 9 9 9 9 8 8
5 5 5 5 5 6 7 8 8 9 10 13 17 19 19 17 14 12 11 13 15 16 16 17 20 23 26 27 25 24 23 23 23 23 22 20 18 17 15 14 14 14 15 16 16 15 15 14 14 14 14 14 14 14 13 12 11 11 11 10 10 9 8 8 8 8 8 8 8 8 8 8 8 8 8 8 8 8 8 8 9 9 9 8 8 8
4 5 5 5 5 5 6 7 8 8 9 12 15 17 17 15 11 9 9 12 15 18 19 21 23 25 24 23 22 20 21 22 22 21 19 17 17 16 15 14 13 13 14 16 16 16 15 15 15 15 15 15 15 15 14 13 12 12 11 10 10 9 9 8 8 8 8 8 8 8 8 8 7 7 7 8 8 8 8 8 9 9 9 8 8 8
4 4 4 6 7 7 7 8 8 9 11 14 16 17 18 14 9 7 7 9 12 14 16 17 17 16 16 17 17 17 18 18 17 17 17 16 15 15 14 12 12 12 12 15 15 15 15 15 15 15 16 16 16 15 14 14 13 12 11 10 10 9 9 8 8 8 8 8 8 8 8 8 7 7 8 8 8 8 8 8 9 9 8 8 8 8
4 5 6 8 10 10 11 11 10 11 13 15 17 18 17 12 8 6 6 7 8 9 10 10 10 11 14 15 15 15 15 13 13 13 13 12 12 13 12 11 11 12 12 14 14 14 14 15 15 15 16 16 16 15 14 13 13 12 11 10 10 9 9 8 8 8 8 8 8 8 8 8 8 8 8 8 8 8 8 8 8 8 8 8 8 8
11 11 13 14 15 15 16 15 14 14 16 18 18 18 16 11 7 5 6 7 8 8 9 8 9 12 15 14 13 12 11 10 10 11 10 10 10 11 11 11 11 12 13 14 14 14 14 15 15 15 15 15 15 14 13 13 12 12 11 10 9 9 9 8 8 8 8 8 8 8 8 8 8 8 8 8 8 8 8 8 8 8 8 8 8 8
21 21 21 22 22 21 21 20 19 19 20 21 21 20 18 13 10 9 9 9 10 11 12 12 14 14 12 11 10 9 9 10 10 10 11 10 10 11 11 10 11 12 12 14 14 14 14 15 15 15 15 15 14 13 12 12 12 11 10 10 9 9 9 9 9 9 9 9 9 9 9 9 9 8 8 8 8 8 8 8 8 8 8 8 8 8
23 23 23 24 24 24 24 22 21 21 21 22 22 21 18 17 16 15 12 10 10 13 15 17 16 13 10 10 9 9 9 9 10 10 10 10 10 10 10 10 11 12 12 13 13 13 13 14 14 14 14 14 13 12 12 12 11 11 10 10 10 9 9 9 9 9 9 9 9 9 9 9 9 9 8 8 8 8 8 8 8 8 8 8 8 8
20 20 21 21 21 22 22 22 22 21 20 20 19 18 17 18 18 16 10 11 13 15 17 17 15 12 10 9 9 8 10 9 9 8 8 8 8 8 9 9 10 11 12 13 13 13 13 13 13 13 14 13 13 12 12 11 11 11 10 10 10 10 10 9 9 9 9 9 9 9 9 9 9 8 8 8 8 8 8 9 9 9 9 8 8 8
18 20 21 20 18 18 17 19 20 20 19 17 15 14 15 16 16 14 10 13 15 17 17 17 16 14 11 9 8 8 10 8 8 7 7 7 7 8 8 9 10 11 11 12 13 14 14 14 14 13 13 13 12 12 12 12 11 11 11 11 10 10 10 10 10 10 10 10 10 9 9 9 9 8 8 8 8 8 9 9 9 9 9 8 8 8
17 19 21 22 20 18 14 13 13 14 15 13 11 10 11 12 12 12 13 17 19 19 18 17 15 13 12 10 10 9 9 8 7 7 6 7 8 9 9 9 10 11 11 12 13 14 17 17 16 15 14 13 13 12 12 12 12 12 12 12 11 11 11 11 11 10 10 10 10 9 9 9 9 9 8 9 9 9 9 9 9 9 9 9 8 8
16 17 19 21 21 20 16 12 9 8 8 8 8 7 6 6 7 10 15 22 23 22 19 16 14 13 12 12 11 9 7 7 8 8 7 8 9 10 10 10 11 11 11 12 13 14 17 18 18 18 16 14 14 13 13 13 13 13 13 13 12 12 12 12 11 11 10 10 10 9 9 9 9 9 9 9 9 9 9 9 9 9 9 9 9 9
17 17 17 19 20 21 19 16 12 9 8 7 7 7 7 6 7 11 18 25 27 26 22 18 16 15 14 14 12 10 7 7 7 7 7 8 9 9 9 10 11 12 13 13 14 15 16 18 19 19 18 16 15 14 14 14 14 14 14 13 13 13 13 12 12 11 10 10 9 9 9 9 9 9 9 9 9 9 9 9 9 9 10 10 10 10
20 20 20 21 22 22 22 20 18 16 13 12 12 11 11 10 12 15 20 24 27 28 26 22 20 18 16 14 12 9 8 8 7 6 6 7 8 9 10 11 12 14 15 16 16 16 16 16 17 17 17 16 16 15 15 15 15 15 14 14 13 13 13 12 11 10 10 9 9 9 9 9 9 9 9 9 9 9 9 9 9 10 10 10 10 10
22 23 24 24 25 26 27 26 24 23 21 20 19 18 16 13 13 14 18 22 24 25 25 23 21 19 17 14 11 9 9 9 9 9 8 8 10 12 13 15 16 16 16 18 18 18 17 16 15 14 15 15 15 15 15 15 15 15 13 13 12 12 11 10 9 9 9 8 8 9 9 9 10 10 10 9 9 9 9 9 9 9 10 10 10 11
19 20 21 22 24 26 27 28 28 27 25 24 23 22 21 18 15 12 12 15 17 18 17 17 18 18 18 16 13 11 9 9 11 12 11 11 13 15 16 18 19 19 18 18 18 17 17 16 14 14 13 13 13 13 14 14 13 13 12 11 10 10 8 8 7 7 7 8 8 9 9 10 10 10 10 9 9 9 9 9 9 9 9 10 10 11
12 13 14 14 15 17 19 22 23 24 24 23 22 21 21 19 17 13 9 8 7 8 8 9 10 12 14 15 15 13 9 9 10 11 11 11 12 13 14 17 18 19 19 18 17 16 15 15 14 14 13 12 12 12 11 11 10 10 9 9 9 8 7 7 7 7 8 8 9 10 10 10 10 10 10 9 9 9 8 8 8 8 9 9 10 11
10 11 12 11 11 11 12 13 15 16 18 18 18 17 17 16 15 12 8 5 3 2 3 4 6 7 9 10 12 13 13 11 10 9 9 8 9 9 10 12 15 17 19 18 17 16 15 14 14 14 13 12 11 10 9 9 9 9 8 8 8 9 9 9 9 10 10 11 11 11 11 11 11 10 10 10 9 9 9 9 9 8 8 9 9 10
11 13 14 14 13 12 11 11 12 12 13 14 14 14 14 13 12 11 9 6 3 2 2 3 5 6 7 7 8 8 8 12 13 13 11 10 9 8 7 8 12 15 18 18 17 16 15 14 13 13 13 12 11 10 9 9 9 9 9 10 10 11 12 12 12 12 12 12 12 12 12 11 11 11 11 11 10 10 10 9 9 9 8 8 8 8
11 13 16 16 15 15 14 14 14 14 14 12 11 11 11 11 11 11 10 9 7 5 3 4 5 6 7 7 7 7 9 13 15 16 15 13 11 9 9 9 11 14 19 19 18 16 15 14 12 12 11 11 11 10 10 10 10 11 11 12 12 13 12 12 12 11 11 11 11 11 11 11 11 12 12 12 12 11 11 10 9 9 8 8 8 8
9 11 13 15 16 16 16 17 17 16 13 11 9 8 7 8 9 10 11 10 10 8 7 5 4 5 6 7 8 9 11 12 14 15 15 14 12 12 12 11 12 14 18 19 19 17 15 13 12 11 10 10 10 11 11 12 12 13 14 13 12 11 10 10 9 9 9 9 10 10 10 11 11 12 12 12 12 12 12 11 10 10 9 9 9 8
10 10 11 12 12 13 13 14 13 11 9 8 8 7 7 8 9 10 11 11 12 12 11 9 8 7 7 8 10 11 12 13 13 14 13 13 13 14 13 13 13 15 17 18 17 16 14 12 11 10 10 10 10 11 11 12 12 13 13 12 11 8 7 7 7 7 8 8 9 10 10 11 11 11 12 12 12 12 12 12 11 10 9 10 10 10
11 11 11 12 12 11 11 10 9 8 8 8 8 9 10 10 10 10 11 12 13 14 14 14 14 13 12 13 13 13 13 13 13 14 14 15 15 15 15 15 16 17 17 15 13 12 10 9 9 9 9 10 10 11 11 10 9 9 8 7 6 6 6 6 7 7 8 8 8 9 10 11 11 11 11 11 11 10 11 11 11 10 10 9 10 11
13 12 11 12 12 12 12 11 10 10 10 10 11 12 13 13 12 12 12 13 15 15 15 15 14 14 14 15 16 15 13 13 13 14 16 17 18 18 18 18 19 19 17 14 10 7 7 7 7 8 8 9 9 10 9 7 5 4 3 4 5 5 5 4 5 7 8 9 9 9 9 10 10 10 10 10 10 9 9 9 10 10 11 11 10 10
12 11 12 12 12 12 13 13 14 13 13 13 13 14 16 15 14 14 14 14 14 14 15 15 13 12 12 14 15 16 16 15 15 16 18 20 22 22 22 21 20 19 16 11 8 6 6 6 6 7 8 8 8 7 7 5 3 2 1 3 5 6 5 5 5 6 6 8 8 8 8 8 8 9 9 8 8 8 9 8 9 9 10 12 12 13
10 11 11 11 12 12 12 11 12 12 12 12 12 13 14 15 15 15 16 17 16 15 15 13 12 12 14 14 15 15 16 16 17 18 19 22 24 25 25 23 21 18 14 12 9 9 10 7 6 7 8 7 6 5 5 3 2 1 1 2 3 4 4 5 6 7 6 6 7 7 7 7 7 8 7 7 7 7 8 9 9 10 10 11 13 14
11 11 10 10 10 10 10 10 10 10 10 10 10 11 11 13 14 15 16 17 17 17 16 13 12 12 15 15 15 15 15 16 17 19 21 23 24 25 24 24 22 19 14 11 8 7 9 8 7 7 6 4 4 3 3 2 1 1 1 2 3 3 3 4 5 6 6 7 7 7 6 7 7 7 7 7 7 8 9 10 12 13 13 14 14 15
11 10 10 9 9 9 9 10 10 10 9 9 10 10 10 11 12 14 16 17 18 18 17 14 14 14 14 14 14 15 16 17 19 21 24 26 27 27 25 23 21 17 13 10 8 6 5 6 6 6 5 3 2 2 1 2 1 1 1 2 3 3 3 4 4 5 5 6 7 7 6 6 6 7 7 8 9 10 11 13 14 14 15 15 15 15
9 9 9 9 8 8 9 9 10 10 11 11 10 10 9 9 10 12 15 17 19 19 17 16 17 18 16 13 13 14 15 17 20 23 25 28 29 29 26 23 19 15 11 9 7 6 5 4 4 3 3 2 2 2 1 2 2 3 2 3 3 4 4 4 4 5 6 6 6 7 6 6 7 7 9 10 12 13 14 14 15 15 15 15 14 14
7 7 8 8 8 8 9 10 11 12 12 12 12 10 9 8 9 11 14 17 20 20 18 18 18 17 16 14 13 12 13 14 16 19 23 26 26 25 23 19 15 12 9 8 6 5 4 4 3 3 1 2 2 1 1 2 3 3 3 3 4 4 4 5 5 6 6 6 7 7 7 7 9 10 12 12 13 14 14 14 14 13 13 12 12 12
5 6 7 7 8 8 9 10 11 13 14 14 13 12 10 9 9 10 13 16 19 21 21 19 17 15 13 11 11 12 13 13 14 15 17 19 20 19 16 13 11 9 7 6 6 5 4 3 3 3 3 3 3 2 2 3 3 4 3 4 4 4 5 5 6 7 7 7 7 8 9 10 12 13 13 13 12 12 12 11 10 10 10 10 11 11
6 6 7 8 8 8 9 10 11 14 16 17 16 14 11 9 9 10 13 16 19 21 22 20 16 13 12 8 8 9 11 11 11 11 12 12 12 11 10 9 7 6 5 4 4 4 3 3 3 4 3 4 4 4 3 3 3 4 4 4 5 5 6 7 7 8 8 8 8 10 12 14 15 15 13 12 10 9 8 8 8 8 9 9 10 11
7 8 9 9 9 8 9 10 12 14 18 19 18 16 12 10 9 10 12 16 19 22 23 20 16 13 10 7 7 7 8 8 8 7 7 7 6 6 6 6 5 4 4 4 4 4 4 3 4 5 5 5 5 5 5 4 4 4 5 6 7 7 8 8 8 8 9 10 11 12 14 14 14 13 11 9 8 7 7 8 9 10 11 12 12 13
Height
2932 2931 2930 2930 2930 2929 2927 2928 2929 2930 2930 2931 2933 2936 2936 2937 2937 2937 2937 2937 2937 2937 2936 2936 2935 2935 2936 2936 2937 2937 2937 2937 2937 2937 2937 2937 2938 2938 2939 2939 2939 2940 2940 2941 2942 2942 2943 2944 2945 2946 2947 2949 2951 2952 2953 2954 2956 2957 2957 2958 2959 2961 2962 2963 2964 2965 2966 2967 2968 2969 2970 2971 2972 2972 2973 2973 2974 2975 2975 2976 2977 2978 2978 2979 2979 2980
2928 2926 2925 2924 2924 2923 2922 2923 2924 2925 2925 2926 2927 2929 2930 2931 2931 2931 2932 2932 2932 2932 2932 2931 2931 2931 2931 2932 2932 2933 2933 2933 2933 2933 2933 2933 2934 2934 2935 2935 2936 2936 2937 2937 2937 2938 2939 2940 2941 2942 2943 2945 2947 2948 2949 2950 2952 2952 2953 2954 2956 2957 2958 2959 2960 2961 2962 2963 2964 2965 2967 2967 2968 2968 2969 2970 2970 2971 2972 2972 2973 2974 2975 2975 2976 2977
2924 2921 2920 2919 2919 2918 2917 2917 2918 2919 2920 2920 2921 2923 2924 2925 2926 2926 2927 2927 2927 2927 2927 2927 2926 2926 2926 2927 2927 2928 2929 2929 2929 2929 2929 2929 2930 2931 2931 2931 2932 2932 2933 2933 2934 2934 2935 2936 2937 2938 2940 2941 2942 2944 2945 2946 2947 2948 2949 2951 2952 2953 2954 2955 2956 2957 2959 2960 2961 2962 2962 2963 2964 2965 2965 2966 2967 2967 2968 2968 2969 2970 2971 2972 2972 2973
2919 2917 2915 2914 2914 2913 2913 2912 2912 2913 2914 2915 2916 2917 2918 2919 2920 2921 2922 2922 2922 2922 2922 2922 2922 2922 2922 2922 2923 2924 2924 2925 2925 2925 2925 2926 2926 2927 2927 2927 2928 2929 2929 2930 2930 2931 2932 2932 2933 2934 2936 2937 2939 2940 2941 2942 2943 2944 2946 2947 2948 2949 2950 2951 2952 2954 2955 2956 2957 2957 2958 2959 2960 2961 2962 2962 2963 2963 2964 2965 2966 2967 2967 2968 2969 2969
2915 2913 2911 2910 2909 2908 2908 2907 2907 2907 2908 2909 2910 2912 2913 2914 2915 2916 2917 2917 2917 2917 2917 2917 2917 2917 2917 2918 2918 2919 2920 2921 2921 2921 2921 2922 2922 2922 2923 2924 2924 2925 2926 2926 2927 2927 2928 2929 2930 2931 2932 2933 2935 2936 2937 2938 2940 2941 2942 2943 2944 2945 2947 2948 2949 2950 2951 2952 2953 2954 2955 2955 2956 2957 2957 2958 2959 2960 2960 2961 2962 2963 2964 2964 2965 2966
2910 2909 2907 2905 2904 2904 2903 2903 2902 2902 2902 2903 2905 2906 2907 2909 2910 2910 2911 2912 2913 2913 2913 2913 2913 2913 2913 2913 2914 2915 2916 2916 2917 2917 2917 2917 2918 2918 2919 2920 2921 2921 2922 2923 2923 2924 2924 2925 2926 2927 2928 2929 2931 2932 2934 2935 2936 2937 2938 2940 2941 2942 2943 2944 2945 2947 2947 2948 2949 2950 2951 2952 2952 2953 2954 2955 2955 2956 2957 2957 2959 2959 2960 2961 2961 2962
2905 2904 2902 2901 2900 2899 2899 2898 2898 2898 2898 2898 2899 2901 2902 2903 2904 2905 2906 2907 2908 2908 2908 2909 2909 2909 2909 2910 2910 2911 2911 2912 2912 2912 2913 2913 2914 2915 2915 2916 2917 2917 2918 2919 2920 2920 2921 2922 2922 2923 2924 2926 2927 2928 2930 2931 2932 2934 2935 2936 2937 2938 2940 2941 2942 2943 2944 2945 2945 2946 2947 2948 2949 2949 2950 2951 2952 2952 2953 2954 2955 2956 2957 2957 2958 2958
2900 2899 2898 2897 2895 2894 2894 2893 2893 2893 2893 2893 2894 2895 2897 2898 2899 2900 2901 2902 2903 2904 2904 2905 2905 2905 2906 2906 2906 2906 2907 2907 2907 2908 2909 2909 2910 2911 2911 2912 2913 2913 2914 2915 2916 2917 2917 2918 2918 2919 2921 2922 2923 2925 2926 2927 2929 2930 2932 2933 2934 2935 2936 2937 2938 2939 2940 2941 2942 2942 2943 2944 2945 2946 2947 2947 2948 2949 2950 2951 2952 2952 2953 2953 2954 2955
2895 2894 2893 2892 2892 2890 2889 2889 2889 2889 2889 2889 2889 2890 2891 2892 2893 2895 2896 2897 2898 2899 2900 2900 2901 2901 2902 2902 2902 2902 2902 2902 2903 2903 2904 2905 2905 2906 2907 2908 2908 2909 2910 2911 2912 2913 2913 2914 2915 2916 2917 2918 2920 2921 2923 2924 2926 2927 2928 2929 2931 2932 2932 2933 2934 2935 2936 2937 2938 2939 2939 2940 2941 2942 2943 2943 2944 2945 2946 2947 2948 2949 2949 2950 2950 2951
2890 2889 2888 2888 2887 2887 2885 2884 2884 2885 2885 2884 2885 2886 2887 2887 2889 2890 2891 2892 2893 2895 2896 2896 2896 2897 2897 2898 2898 2897 2897 2897 2898 2899 2899 2900 2901 2902 2903 2903 2904 2905 2906 2907 2908 2908 2909 2910 2911 2912 2913 2915 2916 2918 2919 2921 2922 2923 2925 2926 2927 2928 2929 2930 2931 2932 2932 2933 2934 2935 2936 2936 2937 2938 2939 2940 2941 2942 2942 2943 2944 2945 2945 2946 2947 2947
2885 2885 2884 2883 2882 2882 2881 2880 2880 2881 2881 2880 2880 2881 2882 2883 2885 2886 2887 2887 2889 2890 2891 2891 2892 2892 2892 2893 2893 2893 2892 2892 2893 2894 2895 2896 2897 2897 2898 2899 2900 2900 2901 2902 2903 2904 2905 2906 2907 2908 2910 2911 2913 2914 2916 2917 2919 2920 2922 2922 2924 2925 2926 2926 2927 2928 2929 2930 2931 2931 2932 2932 2933 2934 2935 2936 2937 2938 2939 2940 2940 2941 2942 2942 2942 2943
2881 2880 2879 2878 2877 2877 2877 2877 2877 2876 2876 2876 2876 2877 2878 2880 2881 2882 2882 2883 2884 2885 2886 2886 2887 2887 2888 2888 2888 2888 2888 2888 2888 2889 2890 2891 2892 2893 2893 2894 2895 2896 2897 2897 2898 2899 2900 2902 2902 2904 2906 2907 2909 2911 2912 2914 2915 2917 2918 2919 2920 2921 2922 2923 2923 2924 2925 2926 2927 2927 2928 2929 2930 2931 2932 2932 2933 2934 2935 2936 2936 2937 2937 2938 2938 2939
2877 2876 2875 2874 2873 2873 2873 2872 2872 2872 2872 2872 2872 2873 2874 2876 2877 2877 2877 2878 2879 2880 2881 2881 2882 2882 2883 2883 2883 2883 2883 2883 2884 2885 2886 2887 2887 2888 2889 2890 2890 2891 2892 2893 2893 2895 2896 2897 2898 2900 2902 2903 2905 2907 2909 2910 2912 2913 2915 2916 2917 2917 2918 2919 2920 2921 2922 2922 2923 2924 2925 2925 2926 2927 2928 2928 2929 2930 2931 2932 2932 2932 2933 2934 2934 2935
2872 2872 2871 2870 2869 2869 2868 2868 2868 2868 2868 2868 2869 2870 2871 2872 2872 2872 2872 2873 2875 2876 2877 2877 2877 2877 2878 2878 2879 2879 2879 2879 2880 2881 2881 2882 2883 2884 2885 2885 2886 2887 2887 2888 2889 2890 2892 2893 2894 2896 2898 2900 2902 2903 2905 2907 2908 2910 2911 2912 2913 2914 2915 2915 2916 2917 2918 2918 2919 2920 2921 2922 2922 2923 2924 2925 2926 2926 2927 2927 2928 2928 2929 2930 2930 2930
2868 2868 2867 2866 2865 2865 2865 2865 2864 2864 2864 2865 2865 2866 2867 2867 2868 2869 2869 2870 2871 2872 2872 2872 2872 2872 2873 2873 2874 2875 2876 2876 2876 2877 2877 2878 2879 2880 2881 2881 2882 2882 2883 2884 2885 2887 2888 2889 2891 2892 2894 2896 2898 2900 2902 2903 2904 2906 2907 2908 2909 2910 2911 2912 2912 2913 2914 2915 2916 2916 2917 2918 2919 2920 2921 2921 2922 2922 2922 2923 2923 2924 2925 2925 2926 2926
2865 2864 2863 2862 2862 2862 2862 2862 2861 2861 2861 2862 2862 2862 2862 2863 2864 2865 2866 2866 2867 2868 2868 2867 2867 2867 2868 2869 2870 2871 2872 2872 2872 2873 2873 2874 2875 2876 2877 2877 2877 2878 2880 2881 2882 2883 2885 2886 2887 2889 2891 2892 2894 2896 2898 2899 2901 2902 2903 2904 2905 2906 2907 2908 2908 2909 2910 2911 2912 2913 2914 2914 2915 2916 2917 2917 2918 2918 2918 2919 2919 2920 2920 2921 2921 2922
2861 2860 2859 2858 2858 2858 2859 2859 2858 2858 2858 2858 2858 2859 2859 2860 2861 2862 2862 2863 2863 2863 2863 2863 2863 2863 2864 2865 2866 2867 2868 2868 2868 2869 2870 2870 2871 2872 2873 2873 2874 2875 2876 2877 2878 2880 2881 2882 2884 2885 2887 2889 2891 2892 2894 2895 2897 2898 2899 2900 2901 2902 2903 2904 2905 2906 2906 2907 2908 2909 2910 2911 2912 2912 2913 2913 2914 2914 2914 2915 2915 2916 2916 2917 2917 2917
2857 2857 2856 2855 2855 2855 2856 2856 2856 2855 2855 2856 2856 2856 2856 2857 2858 2858 2859 2859 2859 2860 2859 2860 2859 2860 2860 2861 2862 2863 2864 2864 2864 2865 2866 2867 2868 2869 2869 2870 2870 2872 2873 2874 2875 2876 2878 2879 2880 2882 2884 2885 2887 2889 2890 2892 2893 2894 2895 2896 2897 2898 2899 2900 2901 2902 2902 2903 2904 2905 2906 2907 2908 2908 2909 2909 2910 2910 2911 2911 2911 2911 2912 2912 2912 2913
2853 2852 2852 2852 2852 2852 2853 2853 2853 2853 2853 2853 2853 2853 2853 2854 2854 2855 2856 2856 2856 2856 2856 2856 2856 2856 2857 2857 2858 2859 2860 2860 2860 2861 2862 2863 2864 2865 2866 2866 2867 2868 2869 2871 2872 2873 2874 2876 2877 2879 2880 2882 2883 2885 2886 2888 2889 2890 2891 2892 2893 2894 2895 2896 2897 2898 2899 2900 2901 2902 2903 2903 2904 2904 2905 2906 2906 2906 2907 2907 2907 2907 2907 2908 2908 2908
2848 2847 2847 2847 2848 2849 2849 2849 2850 2850 2850 2850 2850 2850 2850 2851 2852 2852 2852 2853 2853 2853 2853 2853 2853 2853 2854 2854 2855 2855 2855 2856 2857 2857 2858 2860 2861 2862 2862 2863 2863 2864 2866 2867 2868 2870 2871 2872 2873 2875 2877 2878 2880 2881 2883 2884 2885 2887 2888 2889 2890 2891 2892 2892 2893 2894 2895 2896 2897 2898 2899 2899 2900 2901 2901 2902 2902 2902 2902 2903 2903 2903 2903 2903 2904 2904
2843 2842 2842 2843 2844 2844 2844 2845 2846 2847 2847 2847 2847 2847 2847 2848 2848 2849 2850 2850 2850 2850 2850 2850 2850 2851 2851 2851 2851 2852 2852 2852 2853 2854 2856 2857 2858 2859 2859 2860 2860 2861 2862 2864 2865 2867 2867 2869 2870 2872 2873 2875 2876 2878 2879 2881 2882 2883 2884 2885 2886 2887 2888 2889 2890 2891 2892 2892 2893 2894 2895 2896 2896 2897 2897 2898 2898 2898 2898 2899 2899 2899 2899 2899 2899 2900
2840 2839 2839 2839 2839 2840 2840 2841 2842 2843 2844 2843 2843 2843 2844 2845 2846 2846 2847 2847 2847 2847 2847 2847 2847 2847 2848 2848 2848 2848 2849 2850 2851 2852 2853 2854 2855 2856 2857 2857 2857 2858 2860 2861 2862 2863 2864 2866 2867 2868 2870 2871 2873 2874 2876 2877 2878 2879 2881 2882 2882 2883 2884 2885 2886 2887 2888 2889 2889 2890 2891 2892 2892 2893 2893 2894 2894 2894 2895 2895 2895 2895 2895 2895 2895 2895
2837 2837 2837 2836 2836 2836 2836 2837 2838 2839 2839 2839 2839 2840 2841 2842 2842 2843 2844 2844 2844 2844 2844 2844 2844 2844 2845 2845 2846 2846 2847 2848 2849 2850 2851 2851 2852 2853 2854 2854 2855 2856 2857 2858 2860 2861 2862 2862 2864 2865 2867 2868 2870 2871 2872 2873 2875 2876 2877 2878 2879 2880 2881 2882 2882 2883 2884 2885 2886 2887 2887 2888 2888 2889 2889 2890 2890 2890 2890 2891 2891 2891 2891 2891 2891 2891
2837 2835 2834 2834 2833 2832 2833 2834 2834 2835 2835 2835 2836 2837 2838 2839 2839 2840 2840 2840 2841 2841 2841 2841 2841 2842 2842 2843 2843 2844 2845 2846 2847 2847 2848 2849 2850 2851 2851 2852 2852 2853 2855 2856 2857 2858 2859 2860 2861 2862 2864 2865 2866 2867 2869 2870 2871 2872 2873 2874 2875 2876 2877 2878 2879 2879 2880 2881 2882 2882 2883 2884 2884 2885 2885 2886 2886 2886 2886 2887 2887 2887 2887 2887 2887 2887
2836 2834 2832 2831 2831 2830 2830 2830 2831 2831 2832 2832 2832 2833 2834 2835 2836 2836 2837 2837 2837 2838 2838 2839 2839 2839 2840 2841 2841 2842 2843 2843 2844 2845 2845 2846 2847 2848 2849 2849 2850 2851 2852 2854 2855 2855 2856 2857 2858 2859 2861 2862 2863 2864 2866 2867 2868 2869 2870 2871 2872 2872 2873 2874 2875 2876 2877 2877 2878 2879 2879 2880 2881 2881 2881 2882 2882 2882 2882 2882 2882 2883 2883 2883 2883 2882
2833 2831 2830 2829 2828 2827 2827 2827 2827 2828 2828 2828 2829 2830 2831 2832 2832 2833 2833 2834 2835 2835 2836 2836 2836 2837 2837 2838 2838 2839 2840 2841 2842 2842 2843 2844 2845 2846 2846 2847 2848 2849 2850 2851 2852 2852 2853 2854 2855 2856 2857 2858 2860 2861 2862 2863 2864 2866 2867 2867 2868 2869 2870 2871 2872 2872 2873 2874 2874 2875 2876 2876 2877 2877 2877 2878 2878 2878 2878 2879 2879 2879 2879 2879 2879 2878
2830 2829 2827 2826 2825 2824 2824 2824 2825 2825 2825 2826 2826 2827 2828 2828 2829 2830 2830 2831 2832 2833 2833 2833 2834 2834 2835 2835 2836 2837 2838 2838 2839 2840 2841 2842 2842 2843 2844 2845 2846 2846 2847 2848 2849 2850 2850 2851 2852 2853 2854 2856 2857 2858 2859 2860 2861 2862 2863 2864 2865 2866 2866 2867 2868 2869 2869 2870 2871 2871 2872 2872 2873 2873 2874 2874 2874 2875 2875 2875 2875 2875 2875 2875 2874 2874
2827 2826 2825 2824 2823 2822 2822 2822 2822 2822 2822 2823 2823 2824 2824 2825 2826 2826 2826 2828 2829 2830 2830 2830 2831 2832 2832 2833 2833 2834 2835 2836 2837 2837 2838 2839 2840 2841 2842 2842 2843 2843 2844 2845 2846 2847 2847 2848 2849 2850 2852 2853 2854 2855 2856 2857 2858 2859 2860 2861 2861 2862 2863 2864 2864 2865 2866 2867 2867 2868 2868 2869 2869 2870 2870 2870 2871 2871 2871 2871 2871 2871 2871 2871 2870 2869
2823 2823 2822 2822 2822 2821 2820 2819 2819 2819 2820 2820 2821 2821 2821 2821 2822 2822 2824 2825 2826 2827 2827 2828 2829 2829 2830 2831 2831 2832 2833 2834 2835 2836 2836 2837 2837 2838 2840 2840 2840 2841 2842 2842 2843 2843 2844 2845 2846 2847 2848 2850 2851 2852 2853 2854 2855 2855 2856 2857 2858 2859 2860 2861 2861 2862 2862 2863 2864 2864 2865 2865 2866 2866 2867 2867 2867 2867 2867 2867 2867 2867 2867 2866 2866 2865
2820 2820 2819 2819 2819 2819 2819 2818 2818 2817 2817 2818 2818 2819 2819 2818 2819 2820 2821 2822 2823 2823 2824 2825 2826 2827 2828 2828 2829 2830 2830 2832 2833 2834 2834 2834 2835 2836 2837 2837 2837 2838 2839 2839 2839 2840 2841 2842 2843 2845 2846 2847 2848 2849 2850 2851 2852 2852 2853 2854 2855 2856 2857 2857 2858 2859 2859 2860 2860 2861 2861 2861 2862 2862 2862 2863 2863 2863 2863 2864 2864 2863 2862 2862 2861 2861
2818 2817 2817 2816 2816 2816 2816 2816 2816 2816 2816 2816 2816 2816 2817 2816 2816 2817 2818 2819 2820 2820 2821 2822 2823 2824 2825 2826 2827 2827 2828 2830 2831 2832 2832 2832 2832 2833 2834 2834 2834 2835 2836 2836 2836 2837 2837 2839 2841 2842 2843 2844 2845 2846 2847 2848 2848 2849 2850 2851 2852 2852 2853 2854 2855 2856 2856 2856 2857 2857 2857 2858 2858 2858 2859 2859 2859 2860 2860 2860 2860 2859 2858 2858 2857 2856
2815 2815 2814 2814 2814 2814 2814 2814 2814 2814 2814 2814 2814 2814 2815 2814 2814 2815 2816 2816 2817 2818 2819 2820 2821 2822 2823 2823 2824 2825 2826 2827 2828 2829 2829 2829 2830 2830 2831 2831 2832 2832 2832 2833 2833 2834 2835 2836 2837 2839 2840 2841 2842 2843 2844 2845 2846 2846 2847 2848 2849 2850 2851 2852 2852 2852 2852 2853 2853 2854 2854 2854 2854 2855 2855 2855 2856 2856 2856 2856 2856 2856 2855 2854 2853 2852
2814 2813 2812 2812 2812 2812 2812 2812 2812 2812 2812 2812 2812 2812 2813 2813 2813 2812 2813 2814 2815 2816 2817 2818 2819 2819 2820 2821 2822 2823 2824 2825 2825 2826 2826 2827 2827 2827 2828 2828 2828 2829 2829 2830 2830 2831 2832 2833 2834 2836 2837 2837 2838 2839 2841 2842 2842 2843 2844 2845 2846 2847 2848 2848 2849 2849 2849 2850 2850 2850 2850 2851 2851 2851 2852 2852 2852 2852 2852 2852 2852 2852 2851 2850 2849 2848
2812 2812 2811 2811 2810 2810 2810 2810 2810 2810 2810 2810 2810 2810 2811 2811 2812 2812 2811 2812 2813 2814 2815 2816 2817 2817 2818 2818 2819 2820 2821 2822 2822 2822 2823 2823 2824 2824 2825 2825 2826 2826 2827 2827 2827 2828 2829 2830 2831 2832 2833 2834 2835 2836 2837 2838 2839 2840 2841 2842 2843 2844 2845 2845 2846 2846 2846 2847 2847 2847 2847 2847 2847 2848 2848 2848 2848 2848 2848 2848 2848 2847 2847 2846 2845 2844
2811 2810 2810 2809 2809 2809 2808 2808 2809 2809 2809 2809 2809 2809 2809 2810 2810 2810 2810 2810 2811 2812 2813 2814 2814 2815 2815 2816 2816 2817 2818 2819 2819 2819 2819 2820 2821 2821 2822 2822 2822 2823 2823 2824 2824 2825 2826 2827 2828 2829 2830 2831 2832 2833 2834 2836 2837 2837 2838 2839 2840 2841 2842 2842 2843 2843 2843 2843 2843 2844 2844 2844 2844 2844 2844 2844 2844 2844 2844 2844 2844 2844 2843 2842 2842 2841
2809 2809 2808 2808 2807 2807 2807 2807 2807 2807 2807 2808 2808 2808 2808 2808 2809 2809 2809 2809 2809 2809 2810 2811 2812 2812 2812 2812 2813 2813 2814 2816 2816 2816 2816 2817 2817 2818 2819 2819 2820 2820 2821 2821 2821 2822 2823 2824 2825 2826 2827 2827 2829 2830 2831 2833 2834 2835 2835 2836 2837 2838 2838 2839 2839 2840 2840 2840 2840 2841 2841 2841 2841 2841 2841 2841 2841 2841 2840 2840 2840 2840 2839 2839 2838 2837
2808 2807 2807 2807 2806 2806 2806 2806 2806 2806 2806 2806 2806 2807 2807 2807 2807 2807 2807 2807 2806 2806 2807 2807 2808 2809 2809 2810 2810 2810 2811 2812 2812 2813 2813 2814 2814 2815 2816 2817 2817 2817 2818 2818 2819 2819 2820 2821 2822 2822 2823 2824 2826 2827 2828 2830 2831 2832 2832 2833 2834 2835 2835 2836 2836 2836 2837 2837 2837 2837 2837 2837 2837 2837 2837 2837 2837 2836 2836 2836 2836 2836 2835 2835 2834 2833
2807 2807 2806 2806 2805 2804 2804 2804 2804 2804 2804 2804 2804 2804 2804 2804 2804 2804 2804 2804 2804 2804 2804 2804 2805 2806 2806 2807 2807 2807 2808 2808 2808 2809 2810 2810 2811 2812 2813 2814 2815 2815 2815 2816 2816 2817 2817 2818 2819 2819 2820 2821 2823 2824 2826 2827 2827 2828 2829 2830 2831 2831 2832 2832 2833 2833 2833 2833 2833 2833 2833 2833 2833 2832 2832 2832 2832 2832 2832 2831 2831 2831 2831 2830 2829 2829
2805 2805 2805 2805 2804 2803 2803 2802 2802 2802 2801 2801 2801 2801 2801 2802 2802 2802 2802 2802 2802 2802 2802 2802 2802 2803 2803 2804 2804 2805 2805 2805 2805 2805 2806 2806 2807 2808 2809 2811 2812 2812 2813 2813 2814 2814 2815 2815 2816 2817 2818 2819 2820 2822 2823 2823 2824 2825 2826 2826 2827 2827 2828 2829 2829 2829 2829 2829 2829 2829 2829 2829 2829 2828 2828 2828 2828 2827 2827 2827 2827 2827 2826 2825 2824 2824
2803 2803 2803 2803 2803 2802 2802 2801 2801 2800 2799 2799 2799 2798 2799 2799 2799 2799 2799 2799 2799 2799 2799 2800 2800 2800 2801 2801 2802 2802 2802 2802 2802 2802 2802 2803 2803 2804 2805 2807 2808 2810 2811 2811 2811 2812 2812 2812 2813 2814 2815 2816 2817 2818 2819 2820 2821 2822 2822 2822 2822 2823 2824 2825 2825 2825 2825 2825 2825 2825 2825 2825 2825 2824 2824 2823 2823 2823 2822 2822 2822 2821 2821 2820 2819 2819
2800 2800 2801 2801 2801 2801 2800 2800 2799 2799 2798 2797 2797 2797 2797 2797 2797 2797 2797 2797 2797 2797 2797 2797 2797 2797 2797 2798 2798 2799 2799 2799 2799 2799 2799 2800 2800 2801 2802 2803 2805 2807 2807 2808 2808 2809 2810 2810 2811 2812 2812 2813 2814 2815 2816 2817 2817 2818 2818 2818 2818 2819 2820 2820 2820 2820 2821 2821 2821 2821 2821 2821 2820 2820 2820 2819 2819 2818 2818 2817 2817 2816 2816 2815 2815 2814
2798 2798 2798 2798 2798 2798 2798 2798 2798 2797 2797 2796 2796 2795 2795 2795 2794 2794 2794 2794 2794 2794 2794 2794 2794 2794 2795 2795 2795 2796 2796 2797 2797 2797 2797 2797 2797 2798 2799 2800 2802 2803 2804 2805 2806 2806 2807 2808 2808 2809 2810 2811 2811 2812 2812 2813 2813 2814 2814 2814 2815 2815 2816 2816 2816 2817 2817 2816 2817 2817 2816 2816 2815 2815 2815 2814 2813 2813 2812 2812 2811 2811 2810 2810 2809 2809
2797 2797 2797 2797 2796 2796 2796 2796 2796 2796 2795 2795 2794 2794 2793 2793 2792 2792 2792 2792 2792 2792 2792 2792 2792 2792 2792 2792 2793 2793 2793 2794 2794 2794 2794 2795 2795 2796 2797 2798 2799 2800 2801 2802 2802 2803 2804 2805 2806 2806 2807 2808 2808 2808 2808 2809 2810 2810 2810 2811 2811 2812 2811 2812 2812 2813 2812 2812 2811 2811 2811 2810 2810 2809 2808 2808 2807 2807 2806 2806 2805 2805 2805 2804 2803 2803
2795 2795 2794 2794 2794 2794 2794 2794 2794 2794 2793 2793 2793 2792 2792 2792 2791 2790 2790 2790 2790 2790 2790 2790 2790 2790 2790 2790 2790 2791 2791 2792 2792 2792 2792 2792 2793 2793 2794 2795 2796 2797 2798 2799 2799 2800 2801 2802 2803 2803 2804 2805 2805 2805 2805 2805 2806 2806 2807 2807 2808 2808 2807 2807 2808 2808 2807 2807 2807 2806 2806 2805 2804 2803 2803 2802 2802 2801 2801 2800 2800 2799 2799 2798 2798 2797
2793 2793 2792 2792 2792 2792 2792 2792 2792 2792 2792 2791 2791 2791 2791 2790 2789 2789 2788 2788 2788 2788 2788 2787 2787 2787 2787 2787 2788 2789 2789 2789 2790 2790 2790 2790 2791 2791 2792 2792 2793 2794 2795 2796 2797 2798 2799 2799 2800 2801 2801 2801 2801 2801 2801 2802 2802 2802 2803 2803 2804 2803 2803 2803 2803 2803 2802 2802 2802 2802 2802 2801 2800 2799 2798 2797 2797 2796 2796 2795 2794 2794 2794 2793 2793 2792
2792 2791 2790 2790 2790 2789 2789 2789 2789 2789 2789 2789 2789 2789 2788 2788 2787 2787 2787 2786 2786 2786 2786 2785 2785 2785 2785 2785 2786 2786 2786 2787 2787 2787 2788 2788 2789 2789 2790 2790 2791 2792 2793 2793 2794 2795 2796 2797 2797 2798 2798 2798 2797 2797 2797 2798 2798 2799 2799 2800 2800 2799 2799 2799 2799 2799 2799 2799 2798 2798 2798 2797 2796 2795 2793 2792 2792 2792 2791 2791 2790 2790 2789 2789 2788 2788
2790 2789 2789 2788 2787 2787 2787 2786 2786 2786 2786 2786 2786 2786 2786 2786 2785 2785 2784 2784 2784 2783 2783 2783 2783 2782 2783 2783 2783 2784 2784 2784 2785 2785 2785 2786 2786 2787 2788 2788 2789 2790 2791 2792 2792 2793 2793 2794 2794 2795 2795 2794 2794 2793 2794 2795 2795 2796 2796 2796 2796 2796 2795 2795 2795 2796 2796 2795 2795 2795 2795 2794 2792 2791 2789 2788 2787 2787 2786 2786 2786 2786 2785 2785 2784 2783
2788 2788 2787 2786 2786 2785 2784 2784 2784 2783 2783 2783 2783 2783 2783 2783 2783 2782 2782 2782 2782 2781 2781 2781 2780 2780 2781 2781 2781 2782 2782 2782 2783 2783 2783 2784 2784 2785 2786 2787 2787 2788 2789 2789 2790 2790 2791 2791 2791 2792 2792 2791 2791 2791 2791 2792 2792 2792 2793 2793 2793 2792 2792 2792 2792 2792 2792 2792 2792 2792 2791 2790 2788 2787 2786 2784 2782 2782 2781 2781 2781 2781 2781 2780 2780 2779
2786 2786 2785 2785 2784 2783 2782 2782 2782 2781 2781 2781 2781 2780 2780 2780 2780 2780 2780 2779 2779 2779 2779 2778 2778 2778 2778 2778 2779 2779 2780 2781 2781 2782 2782 2782 2783 2784 2784 2785 2786 2786 2787 2787 2787 2787 2788 2788 2788 2788 2788 2788 2788 2788 2788 2789 2789 2790 2790 2790 2789 2789 2789 2789 2789 2789 2789 2788 2788 2787 2787 2786 2784 2783 2782 2780 2778 2777 2777 2776 2776 2776 2776 2776 2775 2774
2784 2784 2783 2782 2782 2781 2780 2780 2779 2779 2778 2778 2778 2778 2778 2777 2777 2777 2777 2777 2777 2777 2776 2776 2776 2776 2777 2777 2777 2777 2778 2779 2779 2780 2781 2781 2782 2782 2783 2783 2784 2784 2785 2785 2785 2785 2785 2785 2784 2784 2785 2785 2786 2786 2787 2787 2787 2787 2787 2786 2786 2786 2786 2786 2785 2786 2785 2785 2784 2783 2782 2781 2780 2779 2777 2776 2774 2772 2772 2771 2771 2771 2772 2771 2770 2769
2782 2781 2781 2780 2779 2778 2777 2777 2777 2776 2776 2776 2776 2775 2775 2775 2775 2775 2775 2775 2774 2774 2774 2774 2775 2775 2775 2775 2776 2776 2777 2777 2778 2778 2779 2780 2780 2781 2781 2782 2782 2782 2782 2782 2782 2782 2782 2782 2781 2781 2781 2782 2783 2784 2785 2784 2784 2784 2783 2783 2783 2783 2783 2782 2782 2782 2781 2780 2779 2778 2777 2776 2775 2775 2773 2772 2770 2768 2767 2766 2766 2766 2767 2766 2765 2764